Home > Weather > Whitstable > Past weeks

Flag for United Kingdom Past Weather in Whitstable, England, United Kingdom — Yesterday and Last 2 Weeks

Now
52 °F

Cool.


Feels Like: 47 °F
Forecast: 58 / 66 °F
Wind: 15 mph from West

Location: Manston

Current Time: Jun 29, 2016 at 6:45:24 AM

Latest Report: Jun 29, 2016 at 6:00 AM


Visibility: 31 mi

Pressure: 29.85 "Hg

Humidity: 89%

Dew Point: 49 °F

Location of WhitstableLocation

Past Weather in Whitstable — Graph

°F

Whitstable Temperature Yesterday

Maximum temperature yesterday: 68 °F (at 2:00 PM)
Minimum temperature yesterday: 54 °F (at 5:00 AM)
Average temperature yesterday: 60 °F

High & Low Weather Summary for the Past Weeks

 TemperatureHumidityPressure
High76 °F (Jun 23, 3:00 PM)100% (Jun 14, 6:00 AM)30.26 "Hg (Jun 14, 6:00 AM)
Low48 °F (Jun 19, 2:00 AM)60% (Jun 16, 6:00 PM)29.38 "Hg (Jun 14, 6:00 PM)
Average60 °F87%29.92 "Hg
* Reported Jun 14 5:00 AM — Jun 29 5:00 AM, Whitstable, Weather by CustomWeather, © 2016

Note: Actual official high and low records may vary slightly from our data, if they occured in-between our weather recording intervals... More about our weather records

Advertising

Whitstable Weather History for the Previous 24 Hours

Scroll right to see more
 ConditionsComfort  
Time TempWeatherWind HumidityBarometerVisibility
5:00 AM
Wed, Jun 29
54 °FCool.15 mph92%29.83 "Hg28 mi
4:00 AM54 °FCool.14 mph93%29.81 "Hg19 mi
2:00 AM55 °FCool.18 mph91%29.78 "Hg14 mi
1:00 AM56 °FRain showers. Overcast.15 mph89%29.77 "Hg5 mi
12:00 AM57 °FCool.17 mph90%29.77 "Hg7 mi
11:00 PM
Tue, Jun 28
57 °FDrizzle. Overcast.17 mph93%29.78 "Hg11 mi
10:00 PM55 °FCool.13 mph97%29.80 "Hg9 mi
9:00 PM55 °FCool.10 mph94%29.82 "Hg11 mi
8:00 PM55 °FLight rain. Cloudy.10 mph94%29.85 "Hg12 mi
7:00 PM58 °FCool.13 mph88%29.88 "Hg11 mi
6:00 PM61 °FCool.14 mph71%29.87 "Hg19 mi
5:00 PM63 °FMild.16 mph66%29.89 "Hg13 mi
4:00 PM64 °FMild.18 mph64%29.91 "Hg11 mi
3:00 PM67 °FMild.14 mph60%29.93 "Hg12 mi
2:00 PM68 °FMild.14 mph60%29.96 "Hg17 mi
1:00 PM65 °FMild.14 mph75%29.98 "Hg11 mi
12:00 PM64 °FMild.9 mph62%30.00 "Hg19 mi
10:00 AM65 °FMild.3 mph64%30.03 "Hg14 mi
9:00 AM62 °FCool.3 mph72%30.04 "Hg12 mi
8:00 AM61 °FCool.3 mph71%30.05 "Hg19 mi
7:00 AM60 °FCool.3 mph85%30.06 "Hg19 mi
6:00 AM56 °FCool.6 mph87%30.06 "Hg14 mi
Weather by CustomWeather, © 2016

See weather overviewHow to use our weather pages